Location: Asheville, NC
(35.6000°N, 82.5500°W)
Time: 23:08:07
(UTC-04:00)

Vanguard 2 Rocket - Pass Details

Date: 11 February 2018
Orbit: 554 x 3327 km, 32.9° (Epoch: 20 May)

Event Time Altitude Azimuth Distance (km) Brightness Sun altitude
Rises 22:54:04 0° 204° (SSW) 5,407 - -56.9°
Reaches altitude 10° 22:57:44 10° 194° (SSW) 4,776 - -57.6°
Maximum altitude 23:10:07 33° 137° (SE) 4,134 - -59.5°
Drops below altitude 10° 23:26:17 10° 83° (E) 6,283 - -61.9°
Exits shadow 23:31:25 - 76° (ENE) 7,192 11.3 -62.6°
Sets 23:31:59 0° 75° (ENE) 7,294 11.4 -62.7°
